Hourly Data Report for August 14, 2020

OTTAWA INTL A
ONTARIO
Current Station Operator: NAVCAN

45°19'00.000" N
75°40'00.000" W
114.90 m
6106001
71628
YOW

Download Data

Hourly Data (August 2020)
Hourly Data Report for August 14, 2020
TIME
LST
Temp Definition
°C
Dew Point Definition
°C
Rel Hum Definition
%
Precip. Amount Definition
mm

Wind Dir Definition
10's deg

Wind Spd Definition
km/h
Visibility Definition
km
Stn Press Definition
kPa
Hmdx Definition


Wind Chill Definition


Weather Definition


00:00 20.2 14.5 69   36 12 24.1 100.70     LegendNANA
01:00 19.9 14.4 70   36 12 24.1 100.70     Mostly Cloudy
02:00 19.7 14.6 72   36 14 24.1 100.68     LegendNANA
03:00 18.0 14.6 80   3 12 24.1 100.67     LegendNANA
04:00 17.6 14.4 81   1 12 24.1 100.70     Mainly Clear
05:00 16.4 14.1 86   2 12 24.1 100.71     LegendNANA
06:00 18.2 14.6 79   3 16 24.1 100.73     LegendNANA
07:00 20.1 13.7 66   4 21 24.1 100.78     Mainly Clear
08:00 21.4 13.1 59   5 21 24.1 100.79     LegendNANA
09:00 23.0 13.1 53   5 19 24.1 100.81 26   LegendNANA
10:00 24.6 14.1 52   5 15 24.1 100.81 28   Clear
11:00 25.1 12.9 46   6 11 24.1 100.77 28   LegendNANA
12:00 26.4 13.1 43   5 17 24.1 100.72 29   LegendNANA
13:00 26.9 12.6 41   4 18 24.1 100.68 29   Clear
14:00 27.2 11.8 38   5 19 24.1 100.66 29   LegendNANA
15:00 26.5 12.1 40   5 18 24.1 100.60 29   LegendNANA
16:00 26.9 9.9 34   7 18 24.1 100.58 28   Clear
17:00 26.4 10.3 36   5 17 24.1 100.56 28   LegendNANA
18:00 25.2 12.2 44   6 11 24.1 100.56 28   LegendNANA
19:00 21.8 12.3 54   9 9 24.1 100.53     Clear
20:00 20.3 13.4 64   8 10 24.1 100.56     LegendNANA
21:00 16.5 12.6 78   7 6 24.1 100.58     LegendNANA
22:00 17.6 12.6 72   3 12 24.1 100.58     Clear
23:00 18.1 13.1 72   5 11 24.1 100.58     LegendNANA

Notes on Data Quality.

Legend

  • E = Estimated
  • M = Missing
  • NA = Not Available*
  • [empty] = Indicates an unobserved value
Date modified: